Location: Oulou
(10.7667°N, 12.5167°W)
Time: 06:55:23
(UTC+00:00)

COSMOS 2428 - Pass Details

Date: 20 September 2019
Orbit: 845 x 856 km, 70.9° (Epoch: 18 October)

Event Time Altitude Azimuth Distance (km) Brightness Sun altitude
Rises 20:06:11 0° 354° (N) 3,396 6.0 -20.1°
Reaches altitude 10° 20:08:44 10° 0° (N) 2,462 5.2 -20.7°
Maximum altitude 20:14:08 46° 73° (ENE) 1,127 2.9 -22.0°
Enters shadow 20:14:18 46° 78° (ENE) 1,129 2.9 -22.1°
